Location: Oshawa
(43.9000°N, 78.8670°W)
Time: 17:37:04
(UTC-04:00)

Cosmos 839 Rocket - Visible Passes

Search period start: 17 September 2014 00:00
Search period end: 27 September 2014 00:00
Orbit: 968 x 2084 km, 65.9° (Epoch: 16 September)

Date Brightness Start Highest point End Pass type
(mag) Time Alt. Az. Time Alt. Az. Time Alt. Az.
17 Sep 5.4 20:03:14 10° NNW 20:07:57 22° NE 20:12:38 11° E visible
17 Sep 3.9 22:02:31 10° NW 22:08:42 83° WSW 22:09:15 75° S visible
18 Sep 6.5 00:05:24 10° W 00:05:52 11° W 00:05:52 11° W visible
18 Sep 4.1 21:20:39 10° NNW 21:26:47 66° NE 21:28:41 46° ESE visible
18 Sep 5.9 23:21:41 10° WNW 23:25:18 21° W 23:25:18 21° W visible
19 Sep 4.5 20:38:54 10° NNW 20:44:46 44° NE 20:48:10 25° ESE visible
19 Sep 5.2 22:39:04 10° NW 22:44:36 34° WSW 22:44:48 34° WSW visible
20 Sep 5.0 19:57:13 10° NNW 20:02:36 30° NE 20:07:42 12° E visible
20 Sep 4.6 21:56:51 10° NW 22:02:52 54° WSW 22:04:20 45° SSW visible
21 Sep 4.1 21:14:51 10° NW 21:21:03 84° WSW 21:23:57 37° SSE visible
21 Sep 6.4 23:17:34 10° W 23:20:11 13° WSW 23:20:35 13° WSW visible
22 Sep 4.1 20:33:00 10° NNW 20:39:08 65° NE 20:43:39 22° SE visible
22 Sep 5.9 22:33:58 10° WNW 22:38:38 22° WSW 22:40:17 20° SW visible
23 Sep 4.5 19:51:15 10° NNW 19:57:06 43° NE 20:03:26 10° ESE visible
23 Sep 5.3 21:51:23 10° NW 21:56:58 35° WSW 22:00:05 24° SSW visible
24 Sep 4.6 21:09:11 10° NW 21:15:13 56° WSW 21:20:00 20° S visible
25 Sep 4.1 20:27:11 10° NW 20:33:23 85° WSW 20:40:04 11° SSE visible
25 Sep 6.6 22:29:45 10° WNW 22:32:34 13° WSW 22:35:32 10° SW visible
26 Sep 4.2 19:45:20 10° NNW 19:51:28 64° NE 19:58:19 10° SE visible
26 Sep 6.1 21:46:15 10° WNW 21:51:00 23° WSW 21:56:13 10° SSW visible
